sat.trackr.live / text

‹ back to catalog

STARLINK-4012

NORAD 52602 · 2022-052E

PAYLOAD ACTIVE UNKNOWN

§ Identity

Operator
Country
US
Launch date
2022-05-14
Launch site
AFETR
Launch vehicle
Mass (kg)
RCS (m²)

Purposes: comms

External: N2YO · Heavens-Above · Gunter

§ Orbital elements

Epoch: 2026-09-20T03:42:58.472352Z

Period
93.79 min
Inclination
53.1601°
Eccentricity
0.0000851
Mean motion
15.35402499 rev/d
Perigee alt
459.1 km
Apogee alt
460.3 km
Semi-major
6,837.9 km
B*
-3.9639e-5
RAAN
117.1789°
Arg perigee
108.7136°
Mean anomaly
251.3959°
Rev number
24,113

§ Raw data

STARLINK-40121 52602U 22052E   26263.15484343 -.00001763  00000+0 -39639-4 0  99992 52602  53.1601 117.1789 0000851 108.7136 251.3959 15.35402499241134

JSON: /api/v1/satellites/52602 · /tle

For live sub-satellite position, see the globe view (requires WebGL).

§ Visibility from observer

Set your observer location to see the next 7 days of passes ≥ 10°. The values pass through the URL so the page stays shareable.

No JS? Fill the form by hand. The geolocation button needs JavaScript.